Regional Weather Roundup
Issued by NWS Boston, MA

Home | Current Version | Previous Version | Text Only | Print | Product List | Glossary On
Versions: 1 2 3 4 5 6 7 8 9 10 11 12 13 14 15 16 17 18 19 20 21 22 23 24 25 26 27
000
ASUS41 KBOX 262110
RWRBOX

REGIONAL WEATHER ROUNDUP
NATIONAL WEATHER SERVICE TAUNTON MA
500 PM EDT TUE JUL 26 2016

NOTE:  "FAIR" INDICATES FEW OR NO CLOUDS BELOW 12,000 FEET WITH NO
SIGNIFICANT WEATHER AND/OR OBSTRUCTIONS TO VISIBILITY.  THE FOLLOWING
OBSERVATION LOCATIONS DO NOT REPORT PRESENT WEATHER...PROVINCETOWN...
SMITHFIELD...BLOCK ISLAND...KEENE...AND OXFORD.

MAZALL-262200-
EASTERN MASSACHUSETTS

CITY           SKY/WX    TMP DP  RH WIND       PRES   REMARKS
BOSTON         MOSUNNY   91  58  32 NW17G23   29.77S HX  90
BEVERLY        MOSUNNY   91  60  35 NW12      29.77S HX  90
LAWRENCE       MOSUNNY   93  58  30 N9        29.80S HX  92
BEDFORD        MOSUNNY   92  54  27 N9        29.78R HX  90
BLUE HILL        N/A     91  56  30 NW8       29.80S
NORWOOD        MOSUNNY   93  58  30 NW10      29.77S HX  92
MARSHFIELD     SUNNY     84  63  48 SE9       29.78R
PLYMOUTH       PTSUNNY   91  58  32 NE9       29.79R HX  90
TAUNTON        MOSUNNY   93  60  33 NW12G17   29.77S HX  93
NEW BEDFORD    SUNNY     93  60  33 VRB7G20   29.77S HX  93
$$

MAZALL-262200-
CAPE COD AND THE ISLANDS

CITY           SKY/WX    TMP DP  RH WIND       PRES   REMARKS
FALMOUTH       NOT AVBL
HYANNIS        SUNNY     88  68  51 W8        29.77S HX  91
CHATHAM        SUNNY     84  70  62 SW8G16    29.80S
PROVINCETOWN   MOSUNNY   88  63  43 E5        29.79S
NANTUCKET      SUNNY     78  68  71 W17       29.80S
MARTHAS VNYRD  SUNNY     84  68  58 W14       29.80S
$$

MAZALL-262200-
CENTRAL AND WESTERN MASSACHUSETTS

CITY           SKY/WX    TMP DP  RH WIND       PRES   REMARKS
WORCESTER      PTSUNNY   86  55  34 NW14      29.85S
FITCHBURG      PTSUNNY   91  55  29 NW13G21   29.82S
ORANGE         MOSUNNY   88  57  34 W13G20    29.84S
SPRINGFIELD    NOT AVBL
WESTFIELD      MOSUNNY   90  58  33 NW17      29.83F
NORTH ADAMS    PTSUNNY   84  60  44 W14G21    29.87S
PITTSFIELD     SUNNY     83  59  44 NW8       29.90S
$$

RIZALL-262200-
RHODE ISLAND

CITY           SKY/WX    TMP DP  RH WIND       PRES   REMARKS
PROVIDENCE     MOSUNNY   91  59  33 W13       29.80S HX  90
NEWPORT        MOSUNNY   90  63  40 NW9       29.80S HX  91
BLOCK ISLAND   SUNNY     82  68  62 W14       29.83R
SMITHFIELD     MOSUNNY   88  59  37 NW9       29.82S
WESTERLY       SUNNY     86  64  47 SW10      29.82S
$$

CTZALL-262200-
CONNECTICUT

CITY           SKY/WX    TMP DP  RH WIND       PRES   REMARKS
BRADLEY INTL   MOSUNNY   89  57  33 N14       29.82F
HARTFORD       MOSUNNY   93  58  30 NW14G23   29.82F HX  92
BRIDGEPORT     PTSUNNY   91  62  37 NW13G18   29.84S HX  91
DANBURY        SUNNY     86  61  42 N8        29.89S
GROTON         MOSUNNY   87  68  52 W8        29.80S HX  90
NEW HAVEN      MOSUNNY   88  62  41 NW10G18   29.84S
CHESTER        FAIR      88  61  40 NW8G17    29.85S
MERIDEN        MOSUNNY   91  59  33 W15G23    29.84S HX  90
WILLIMANTIC    NOT AVBL
OXFORD         MOSUNNY   84  59  42 NW10G17   29.91S
$$

MEZ002-015-021-024-NHZ003-005-008-011-012-014-VTZ005-008-262200-
NORTHERN NEW ENGLAND

CITY           SKY/WX    TMP DP  RH WIND       PRES   REMARKS
PORTLAND ME    MOSUNNY   89  61  38 NW10G17   29.75S
BANGOR ME      PTSUNNY   89  64  43 NW14      29.73R HX  90
CONCORD NH     MOSUNNY   88  57  34 NW13      29.80S
MANCHESTER NH  MOSUNNY   89  55  31 NW12G22   29.78S
NASHUA NH      MOSUNNY   91  59  33 NW13      29.80S HX  90
PORTSMOUTH NH  MOSUNNY   90  62  38 NW10      29.76S HX  90
JAFFREY NH     PTSUNNY   86  54  33 NW8       29.86S
KEENE NH       MOSUNNY   85  59  41 NW8       29.85R
BURLINGTON VT  PTSUNNY   82  59  45 N10       29.86F
MT. WASHINGTON FOG       52  52 100 NW49G56     N/A  VSB 0
$$

NYZ052-076-262200-
EASTERN NEW YORK

CITY           SKY/WX    TMP DP  RH WIND       PRES   REMARKS
ALBANY         PTSUNNY   85  62  46 W13G28    29.88S
NEW YORK CITY  PTSUNNY   90  64  42 W8        29.85S HX  91
$$

ANZALL-262200-
MARINE OBSERVATIONS

STATION/POSITION TIME  TEMP    WIND        PRES    VSBY  WAVE
                       AIR SEA DIR/SP/G                  HT/PER
                 (UTC) (F)     (DEG/KT/KT) (MB)    (MI)  (FT/S)
BOSTON BUOY      2050   79 75  100/  6/  8 1007.7F         1
BUZZARDS BAY     2000   73     230/ 18/ 19 1009.6R
NANTUCKET SOUND  2050   76 74  240/ 17/ 21 1008.0S         2/ 3
MASS BAY-STELLWA 2004   77 71  150/  6/  6 1007.9F  1 7/8  1
ISLE OF SHOALS   2100   86     300/ 10/ 10 1007.7F
S OF BLOCK IS    2025      72                N/A           3/ 6
$$

......................KEY.........................
  SKY/WX - SKY CONDITION/PRESENT WEATHER
  TMP    - TEMPERATURE IN FAHRENHEIT
  DWPT   - DEWPOINT IN FAHRENHEIT
  RH     - RELATIVE HUMIDITY IN PERCENT
  WIND   - DIRECTION AND SPEED IN MPH
  PRES   - MEAN SEA LEVEL PRESSURE IN INCHES OF HG
  WCI    - WIND CHILL INDEX
  VSB    - VISIBILITY IN MILES
  HX     - HEAT INDEX
  TC     - TEMPERATURE IN CELSIUS
  VRB    - VARIABLE WIND DIRECTION
  N/A    - NOT AVAILABLE




USA.gov is the U.S. government's official web portal to all federal, state and local government web resources and services.